,,,PA_Meas_PMT16A,,PR_Meas_QMR101_102,,RH_Meas_QMH101,,SR_Meas_QMS101,,TA_Meas_QMH101,,GenWind,,GenWind,
date,time,status,PA,status,PR,status,RH,status,SR,status,TA,status,DirAvg,status,SpdAvg,
2010-09-05, 00:00:04,VALID,1000.65,VALID,0,VALID,85.4289,VALID,0,VALID,25.1631,VALID,307,VALID,1.05977,
2010-09-05, 00:01:04,VALID,1000.65,VALID,0,VALID,85.1847,VALID,0,VALID,25.1826,VALID,298,VALID,0.93125,
2010-09-05, 00:02:04,VALID,1000.67,VALID,0,VALID,85.2839,VALID,0,VALID,25.1826,VALID,296,VALID,1.08906,
2010-09-05, 00:03:04,VALID,1000.68,VALID,0,VALID,85.0703,VALID,0,VALID,25.2021,VALID,303,VALID,0.896094,
2010-09-05, 00:04:04,VALID,1000.69,VALID,0,VALID,85.4136,VALID,0,VALID,25.2021,VALID,336,VALID,0.651953,
2010-09-05, 00:05:04,VALID,1000.74,VALID,0,VALID,85.4594,VALID,0,VALID,25.1826,VALID,1,VALID,1.06367,
2010-09-05, 00:06:04,VALID,1000.76,VALID,0,VALID,85.3373,VALID,0,VALID,25.1631,VALID,5,VALID,0.957812,
2010-09-05, 00:07:04,VALID,1000.78,VALID,0,VALID,85.4136,VALID,0,VALID,25.1826,VALID,355,VALID,1.33398,
2010-09-05, 00:08:04,VALID,1000.74,VALID,0,VALID,85.2381,VALID,0,VALID,25.1826,VALID,345,VALID,1.42734,
2010-09-05, 00:09:04,VALID,1000.75,VALID,0,VALID,85.1008,VALID,0,VALID,25.2217,VALID,340,VALID,1.33203,
2010-09-05, 00:10:04,VALID,1000.79,VALID,0,VALID,85.0169,VALID,0,VALID,25.2626,VALID,354,VALID,1.06445,
2010-09-05, 00:11:04,VALID,1000.84,VALID,0,VALID,85.0474,VALID,0,VALID,25.2607,VALID,360,VALID,0.833984,
2010-09-05, 00:12:04,VALID,1000.86,VALID,0,VALID,85.1847,VALID,0,VALID,25.2607,VALID,355,VALID,0.657422,
2010-09-05, 00:13:04,VALID,1000.89,VALID,0,VALID,85.3907,VALID,0,VALID,25.2412,VALID,18,VALID,0.673047,
2010-09-05, 00:14:04,VALID,1000.9,VALID,0,VALID,85.5815,VALID,0,VALID,25.2431,VALID,18,VALID,0.604297,
2010-09-05, 00:15:04,VALID,1000.94,VALID,0,VALID,85.5662,VALID,0,VALID,25.2217,VALID,21,VALID,0.955078,
2010-09-05, 00:16:04,VALID,1000.88,VALID,0,VALID,86.0469,VALID,0,VALID,25.2021,VALID,28,VALID,1.14063,
2010-09-05, 00:17:04,VALID,1000.85,VALID,0,VALID,86.5504,VALID,0,VALID,25.1631,VALID,5,VALID,1.01953,
2010-09-05, 00:18:04,VALID,1000.71,VALID,0.5,VALID,87.3973,VALID,0,VALID,25.0655,VALID,304,VALID,1.12617,
2010-09-05, 00:19:04,VALID,1000.66,VALID,0.5,VALID,88.4654,VALID,0,VALID,24.9484,VALID,272,VALID,1.03398,
2010-09-05, 00:20:04,VALID,1000.69,VALID,0.5,VALID,88.9995,VALID,0,VALID,24.7922,VALID,271,VALID,1.13086,
2010-09-05, 00:21:04,VALID,1000.74,VALID,0,VALID,89.5031,VALID,0,VALID,24.7142,VALID,267,VALID,0.210547,
2010-09-05, 00:22:04,VALID,1000.79,VALID,0,VALID,89.9609,VALID,0,VALID,24.6556,VALID,3,VALID,0.733594,
2010-09-05, 00:23:04,VALID,1000.83,VALID,0,VALID,90.1516,VALID,0,VALID,24.5971,VALID,30,VALID,0.967578,
2010-09-05, 00:24:04,VALID,1000.85,VALID,0,VALID,90.3423,VALID,0,VALID,24.5385,VALID,16,VALID,0.551172,
2010-09-05, 00:25:04,VALID,1000.88,VALID,0,VALID,90.5712,VALID,0,VALID,24.519,VALID,17,VALID,0.305859,
2010-09-05, 00:26:04,VALID,1000.93,VALID,0,VALID,90.8306,VALID,0,VALID,24.48,VALID,17,VALID,0.336328,
2010-09-05, 00:27:04,VALID,1000.97,VALID,0,VALID,90.8993,VALID,0,VALID,24.4409,VALID,119,VALID,0.673828,
2010-09-05, 00:28:04,VALID,1000.97,VALID,0,VALID,90.9298,VALID,0.112286,VALID,24.4409,VALID,135,VALID,0.919922,
2010-09-05, 00:29:04,VALID,1000.96,VALID,0,VALID,91.0137,VALID,0,VALID,24.4409,VALID,135,VALID,0.708594,
2010-09-05, 00:30:04,VALID,1000.94,VALID,0,VALID,91.1282,VALID,0,VALID,24.4604,VALID,170,VALID,0.621094,
2010-09-05, 00:31:04,VALID,1000.86,VALID,0,VALID,91.1816,VALID,0,VALID,24.48,VALID,170,VALID,0.16875,
2010-09-05, 00:32:04,VALID,1000.85,VALID,0,VALID,91.1434,VALID,0,VALID,24.4995,VALID,170,VALID,0.0957031,
2010-09-05, 00:33:04,VALID,1000.8,VALID,0,VALID,91.2045,VALID,0.112286,VALID,24.4995,VALID,170,VALID,0.473437,
2010-09-05, 00:34:04,VALID,1000.75,VALID,0,VALID,91.2197,VALID,0,VALID,24.519,VALID,170,VALID,0.359375,
2010-09-05, 00:35:04,VALID,1000.74,VALID,0,VALID,91.3342,VALID,0,VALID,24.4976,VALID,170,VALID,0.257031,
2010-09-05, 00:36:04,VALID,1000.71,VALID,0,VALID,91.4105,VALID,0,VALID,24.4995,VALID,170,VALID,0,
2010-09-05, 00:37:04,VALID,1000.73,VALID,0,VALID,91.4639,VALID,0,VALID,24.5013,VALID,170,VALID,0,
2010-09-05, 00:38:04,VALID,1000.71,VALID,0,VALID,91.5936,VALID,0,VALID,24.5227,VALID,170,VALID,0,
2010-09-05, 00:39:04,VALID,1000.69,VALID,0,VALID,91.6775,VALID,0,VALID,24.5013,VALID,170,VALID,0,
2010-09-05, 00:40:04,VALID,1000.7,VALID,0,VALID,91.6623,VALID,0,VALID,24.4818,VALID,170,VALID,0,
2010-09-05, 00:41:04,VALID,1000.67,VALID,0,VALID,91.6928,VALID,0,VALID,24.5013,VALID,130,VALID,1.30195,
2010-09-05, 00:42:04,VALID,1000.69,VALID,0,VALID,91.7309,VALID,0,VALID,24.5013,VALID,141,VALID,1.16172,
2010-09-05, 00:43:04,VALID,1000.67,VALID,0.5,VALID,91.7385,VALID,0,VALID,24.5404,VALID,159,VALID,1.25781,
2010-09-05, 00:44:04,VALID,1000.61,VALID,0,VALID,91.6851,VALID,0,VALID,24.5404,VALID,183,VALID,1.3707,
2010-09-05, 00:45:04,VALID,1000.57,VALID,0.5,VALID,91.5936,VALID,0,VALID,24.5404,VALID,189,VALID,1.31328,
2010-09-05, 00:46:04,VALID,1000.56,VALID,0,VALID,91.7309,VALID,0,VALID,24.5599,VALID,198,VALID,1.43828,
2010-09-05, 00:47:04,VALID,1000.54,VALID,0.5,VALID,91.8225,VALID,0,VALID,24.5599,VALID,200,VALID,1.1582,
2010-09-05, 00:48:04,VALID,1000.54,VALID,0,VALID,91.8072,VALID,0,VALID,24.5404,VALID,201,VALID,0.944531,
2010-09-05, 00:49:04,VALID,1000.52,VALID,0,VALID,91.8301,VALID,0,VALID,24.5794,VALID,203,VALID,1.00703,
2010-09-05, 00:50:04,VALID,1000.52,VALID,0,VALID,91.853,VALID,0,VALID,24.5794,VALID,216,VALID,0.558203,
2010-09-05, 00:51:04,VALID,1000.5,VALID,0,VALID,91.8835,VALID,0,VALID,24.5794,VALID,214,VALID,0.273438,
2010-09-05, 00:52:04,VALID,1000.45,VALID,0,VALID,91.9293,VALID,0,VALID,24.558,VALID,214,VALID,0.0164062,
2010-09-05, 00:53:04,VALID,1000.46,VALID,0,VALID,91.9903,VALID,0,VALID,24.519,VALID,214,VALID,0.00703125,
2010-09-05, 00:54:04,VALID,1000.38,VALID,0,VALID,92.0514,VALID,0,VALID,24.5404,VALID,214,VALID,0.292578,
2010-09-05, 00:55:04,VALID,1000.37,VALID,0,VALID,92.1429,VALID,0,VALID,24.4995,VALID,214,VALID,0.314453,
2010-09-05, 00:56:04,VALID,1000.33,VALID,0,VALID,92.1963,VALID,0,VALID,24.48,VALID,214,VALID,0.274609,
2010-09-05, 00:57:04,VALID,1000.3,VALID,0,VALID,92.2574,VALID,0,VALID,24.48,VALID,209,VALID,0.482031,
2010-09-05, 00:58:04,VALID,1000.25,VALID,0,VALID,92.3031,VALID,0.112286,VALID,24.4604,VALID,177,VALID,0.782031,
2010-09-05, 00:59:04,VALID,1000.21,VALID,0,VALID,92.2497,VALID,0.112286,VALID,24.4623,VALID,175,VALID,1.04102,
2010-09-05, 01:00:04,VALID,1000.17,VALID,0,VALID,92.2421,VALID,0.112286,VALID,24.4409,VALID,175,VALID,1.06445,
2010-09-05, 01:01:04,VALID,1000.15,VALID,0,VALID,92.1811,VALID,0,VALID,24.4604,VALID,175,VALID,1.18242,
2010-09-05, 01:02:04,VALID,1000.07,VALID,0,VALID,92.1353,VALID,0.112286,VALID,24.4604,VALID,177,VALID,1.39258,
2010-09-05, 01:03:04,VALID,1000.07,VALID,0.5,VALID,92.0437,VALID,0,VALID,24.48,VALID,195,VALID,1.18359,
2010-09-05, 01:04:04,VALID,1000.03,VALID,0,VALID,92.059,VALID,0,VALID,24.519,VALID,178,VALID,1.33594,
2010-09-05, 01:05:04,VALID,1000.04,VALID,0,VALID,92.0209,VALID,0.112286,VALID,24.4995,VALID,173,VALID,1.48477,
2010-09-05, 01:06:04,VALID,1000.04,VALID,0,VALID,92.0056,VALID,0.112286,VALID,24.519,VALID,165,VALID,1.0043,
2010-09-05, 01:07:04,VALID,1000.02,VALID,0,VALID,91.9827,VALID,0,VALID,24.5013,VALID,146,VALID,1.1668,
2010-09-05, 01:08:04,VALID,1000.01,VALID,0,VALID,91.8911,VALID,0,VALID,24.4623,VALID,146,VALID,0.774609,
2010-09-05, 01:09:04,VALID,999.977,VALID,0,VALID,91.9445,VALID,0,VALID,24.4623,VALID,135,VALID,0.705469,
2010-09-05, 01:10:04,VALID,999.984,VALID,0,VALID,92.0056,VALID,0,VALID,24.4623,VALID,134,VALID,0.761328,
2010-09-05, 01:11:04,VALID,999.968,VALID,0,VALID,92.0895,VALID,0,VALID,24.4214,VALID,125,VALID,0.68125,
2010-09-05, 01:12:04,VALID,999.957,VALID,0,VALID,92.1734,VALID,0,VALID,24.3824,VALID,125,VALID,0.499219,
2010-09-05, 01:13:04,VALID,999.952,VALID,0,VALID,92.2345,VALID,0,VALID,24.3842,VALID,124,VALID,0.730469,
2010-09-05, 01:14:04,VALID,999.907,VALID,0,VALID,92.3108,VALID,0,VALID,24.3647,VALID,124,VALID,0.639844,
2010-09-05, 01:15:04,VALID,999.841,VALID,0,VALID,92.3642,VALID,0,VALID,24.3647,VALID,123,VALID,0.784766,
2010-09-05, 01:16:04,VALID,999.881,VALID,0,VALID,92.41,VALID,0,VALID,24.3452,VALID,123,VALID,0.510156,
2010-09-05, 01:17:04,VALID,999.855,VALID,0,VALID,92.4863,VALID,0,VALID,24.3452,VALID,123,VALID,0.353125,
2010-09-05, 01:18:04,VALID,999.834,VALID,0,VALID,92.5244,VALID,0,VALID,24.3452,VALID,123,VALID,0.472266,
2010-09-05, 01:19:04,VALID,999.846,VALID,0,VALID,92.5778,VALID,0,VALID,24.3043,VALID,123,VALID,0.403125,
2010-09-05, 01:20:04,VALID,999.836,VALID,0,VALID,92.6388,VALID,0,VALID,24.3062,VALID,123,VALID,0.266406,
2010-09-05, 01:21:04,VALID,999.849,VALID,0,VALID,92.6694,VALID,0,VALID,24.3062,VALID,123,VALID,0.496094,
2010-09-05, 01:22:04,VALID,999.848,VALID,0,VALID,92.7151,VALID,0,VALID,24.3257,VALID,125,VALID,0.708594,
2010-09-05, 01:23:04,VALID,999.855,VALID,0,VALID,92.7228,VALID,0,VALID,24.3257,VALID,136,VALID,1.02188,
2010-09-05, 01:24:04,VALID,999.893,VALID,0,VALID,92.7533,VALID,0,VALID,24.3257,VALID,137,VALID,0.807031,
2010-09-05, 01:25:04,VALID,999.885,VALID,0,VALID,92.7457,VALID,0,VALID,24.3062,VALID,135,VALID,0.875781,
2010-09-05, 01:26:04,VALID,999.87,VALID,0,VALID,92.7533,VALID,0,VALID,24.3257,VALID,142,VALID,1.0668,
2010-09-05, 01:27:04,VALID,999.89,VALID,0,VALID,92.7685,VALID,0,VALID,24.3043,VALID,140,VALID,1.05,
2010-09-05, 01:28:04,VALID,999.913,VALID,0,VALID,92.7151,VALID,0,VALID,24.3452,VALID,139,VALID,1.33164,
2010-09-05, 01:29:04,VALID,999.913,VALID,0,VALID,92.7228,VALID,0,VALID,24.3452,VALID,133,VALID,1.8,
2010-09-05, 01:30:04,VALID,999.896,VALID,0,VALID,92.7075,VALID,0,VALID,24.3433,VALID,137,VALID,1.66641,
2010-09-05, 01:31:04,VALID,999.894,VALID,0,VALID,92.6846,VALID,0,VALID,24.3647,VALID,139,VALID,1.32969,
2010-09-05, 01:32:04,VALID,999.846,VALID,0,VALID,92.6617,VALID,0,VALID,24.3647,VALID,133,VALID,1.17734,
2010-09-05, 01:33:04,VALID,999.835,VALID,0,VALID,92.6541,VALID,0,VALID,24.3647,VALID,133,VALID,1.45039,
2010-09-05, 01:34:04,VALID,999.831,VALID,0,VALID,92.6083,VALID,0,VALID,24.3647,VALID,133,VALID,1.82656,
2010-09-05, 01:35:04,VALID,999.837,VALID,0,VALID,92.5702,VALID,0,VALID,24.3842,VALID,123,VALID,1.36875,
2010-09-05, 01:36:04,VALID,999.803,VALID,0,VALID,92.5015,VALID,0,VALID,24.4037,VALID,131,VALID,1.90273,
2010-09-05, 01:37:04,VALID,999.767,VALID,0,VALID,92.4252,VALID,0,VALID,24.4037,VALID,127,VALID,1.58945,
2010-09-05, 01:38:04,VALID,999.733,VALID,0,VALID,92.3413,VALID,0,VALID,24.4037,VALID,129,VALID,1.63047,
2010-09-05, 01:39:04,VALID,999.687,VALID,0,VALID,92.2879,VALID,0,VALID,24.4233,VALID,134,VALID,1.38203,
2010-09-05, 01:40:04,VALID,999.632,VALID,0,VALID,92.2345,VALID,0,VALID,24.4428,VALID,141,VALID,1.27188,
2010-09-05, 01:41:04,VALID,999.622,VALID,0,VALID,92.204,VALID,0,VALID,24.4233,VALID,141,VALID,1.5207,
2010-09-05, 01:42:04,VALID,999.583,VALID,0,VALID,92.2268,VALID,0,VALID,24.4428,VALID,153,VALID,1.48516,
2010-09-05, 01:43:04,VALID,999.525,VALID,0,VALID,92.1734,VALID,0,VALID,24.4019,VALID,151,VALID,1.49844,
2010-09-05, 01:44:04,VALID,999.471,VALID,0,VALID,92.12,VALID,0,VALID,24.4428,VALID,153,VALID,1.11289,
2010-09-05, 01:45:04,VALID,999.443,VALID,0,VALID,92.0743,VALID,0,VALID,24.4214,VALID,148,VALID,1.07969,
2010-09-05, 01:46:04,VALID,999.429,VALID,0,VALID,92.0437,VALID,0,VALID,24.4623,VALID,146,VALID,1.10078,
2010-09-05, 01:47:04,VALID,999.438,VALID,0,VALID,92.0285,VALID,0,VALID,24.4409,VALID,141,VALID,1.14766,
2010-09-05, 01:48:04,VALID,999.472,VALID,0,VALID,92.0743,VALID,0,VALID,24.4623,VALID,126,VALID,0.807813,
2010-09-05, 01:49:04,VALID,999.475,VALID,0,VALID,92.0666,VALID,0,VALID,24.4837,VALID,127,VALID,1.38711,
2010-09-05, 01:50:04,VALID,999.511,VALID,0,VALID,92.0971,VALID,0,VALID,24.4623,VALID,136,VALID,1.57969,
2010-09-05, 01:51:04,VALID,999.518,VALID,0,VALID,92.1353,VALID,0,VALID,24.4818,VALID,147,VALID,1.35625,
2010-09-05, 01:52:04,VALID,999.491,VALID,0,VALID,92.1658,VALID,0,VALID,24.4781,VALID,142,VALID,1.59609,
2010-09-05, 01:53:04,VALID,999.465,VALID,0,VALID,92.1734,VALID,0,VALID,24.519,VALID,147,VALID,1.89141,
2010-09-05, 01:54:04,VALID,999.425,VALID,0,VALID,92.1429,VALID,0,VALID,24.5775,VALID,177,VALID,1.14063,
2010-09-05, 01:55:04,VALID,999.416,VALID,0.5,VALID,92.1582,VALID,0,VALID,24.5775,VALID,183,VALID,1.38437,
2010-09-05, 01:56:04,VALID,999.397,VALID,0,VALID,92.059,VALID,0.112286,VALID,24.5775,VALID,203,VALID,1.49609,
2010-09-05, 01:57:04,VALID,999.401,VALID,0,VALID,91.9598,VALID,0,VALID,24.5775,VALID,199,VALID,1.08594,
2010-09-05, 01:58:04,VALID,999.41,VALID,0,VALID,91.9445,VALID,0,VALID,24.5757,VALID,199,VALID,0.978516,
2010-09-05, 01:59:04,VALID,999.396,VALID,0,VALID,91.853,VALID,0,VALID,24.558,VALID,208,VALID,0.697266,
2010-09-05, 02:00:04,VALID,999.392,VALID,0,VALID,91.5554,VALID,0,VALID,24.558,VALID,158,VALID,1.45859,
2010-09-05, 02:01:04,VALID,999.364,VALID,0,VALID,90.4263,VALID,0,VALID,24.558,VALID,147,VALID,1.28945,
2010-09-05, 02:02:04,VALID,999.382,VALID,0,VALID,90.35,VALID,0,VALID,24.6361,VALID,164,VALID,1.09023,
2010-09-05, 02:03:04,VALID,999.396,VALID,0,VALID,90.5026,VALID,0,VALID,24.6575,VALID,169,VALID,1.28477,
2010-09-05, 02:04:04,VALID,999.42,VALID,0,VALID,90.472,VALID,0,VALID,24.6361,VALID,152,VALID,1.48789,
2010-09-05, 02:05:04,VALID,999.394,VALID,0,VALID,90.1897,VALID,0,VALID,24.6361,VALID,133,VALID,1.6043,
2010-09-05, 02:06:04,VALID,999.421,VALID,0,VALID,89.7472,VALID,0,VALID,24.6361,VALID,130,VALID,1.12617,
2010-09-05, 02:07:04,VALID,999.443,VALID,0,VALID,89.3505,VALID,0,VALID,24.6184,VALID,127,VALID,1.19219,
2010-09-05, 02:08:04,VALID,999.485,VALID,0,VALID,88.969,VALID,0,VALID,24.6184,VALID,112,VALID,1.45938,
2010-09-05, 02:09:04,VALID,999.463,VALID,0,VALID,88.0306,VALID,0,VALID,24.638,VALID,117,VALID,2.00078,
2010-09-05, 02:10:04,VALID,999.518,VALID,0,VALID,88.0992,VALID,0,VALID,24.6751,VALID,110,VALID,1.52422,
2010-09-05, 02:11:04,VALID,999.547,VALID,0,VALID,88.3892,VALID,0,VALID,24.6965,VALID,117,VALID,1.31055,
2010-09-05, 02:12:04,VALID,999.547,VALID,0,VALID,88.4197,VALID,0,VALID,24.677,VALID,116,VALID,1.3793,
2010-09-05, 02:13:04,VALID,999.569,VALID,0,VALID,87.9161,VALID,0,VALID,24.677,VALID,115,VALID,1.81289,
2010-09-05, 02:14:04,VALID,999.569,VALID,0,VALID,87.9695,VALID,0,VALID,24.6965,VALID,153,VALID,1.57813,
2010-09-05, 02:15:04,VALID,999.632,VALID,0,VALID,87.1303,VALID,0,VALID,24.677,VALID,112,VALID,2.07969,
2010-09-05, 02:16:04,VALID,999.656,VALID,0,VALID,87.3592,VALID,0,VALID,24.716,VALID,127,VALID,1.29805,
2010-09-05, 02:17:04,VALID,999.67,VALID,0,VALID,87.3439,VALID,0,VALID,24.716,VALID,130,VALID,1.78242,
2010-09-05, 02:18:04,VALID,999.661,VALID,0,VALID,86.3597,VALID,0,VALID,24.716,VALID,118,VALID,2.44844,
2010-09-05, 02:19:04,VALID,999.656,VALID,0,VALID,84.9253,VALID,0,VALID,24.7356,VALID,129,VALID,2.99766,
2010-09-05, 02:20:04,VALID,999.733,VALID,0,VALID,85.1771,VALID,0,VALID,24.7746,VALID,122,VALID,3.3543,
2010-09-05, 02:21:04,VALID,999.731,VALID,0,VALID,85.94,VALID,0,VALID,24.7746,VALID,124,VALID,2.7832,
2010-09-05, 02:22:04,VALID,999.751,VALID,0.5,VALID,86.1918,VALID,0.112286,VALID,24.6946,VALID,126,VALID,3.04922,
2010-09-05, 02:23:04,VALID,999.761,VALID,0,VALID,86.7106,VALID,0,VALID,24.5775,VALID,122,VALID,2.80547,
2010-09-05, 02:24:04,VALID,999.69,VALID,0,VALID,87.1226,VALID,0,VALID,24.4604,VALID,149,VALID,3.175,
2010-09-05, 02:25:04,VALID,999.663,VALID,0.5,VALID,87.588,VALID,0.112286,VALID,24.3824,VALID,132,VALID,3.17656,
2010-09-05, 02:26:04,VALID,999.639,VALID,0,VALID,88.1526,VALID,0,VALID,24.2848,VALID,140,VALID,2.18242,
2010-09-05, 02:27:04,VALID,999.65,VALID,0,VALID,88.5189,VALID,0,VALID,24.2263,VALID,141,VALID,1.83828,
2010-09-05, 02:28:04,VALID,999.64,VALID,0,VALID,88.6028,VALID,0,VALID,24.1872,VALID,111,VALID,1.56758,
2010-09-05, 02:29:04,VALID,999.678,VALID,0,VALID,88.4197,VALID,0,VALID,24.1696,VALID,112,VALID,2.00508,
2010-09-05, 02:30:04,VALID,999.697,VALID,0,VALID,88.351,VALID,0,VALID,24.1482,VALID,121,VALID,1.86484,
2010-09-05, 02:31:04,VALID,999.681,VALID,0,VALID,87.5651,VALID,0,VALID,24.1287,VALID,99,VALID,2.36562,
2010-09-05, 02:32:04,VALID,999.69,VALID,0,VALID,87.8169,VALID,0.112286,VALID,24.1872,VALID,105,VALID,2.00039,
2010-09-05, 02:33:04,VALID,999.676,VALID,0,VALID,88.2518,VALID,0,VALID,24.1872,VALID,103,VALID,1.86094,
2010-09-05, 02:34:04,VALID,999.692,VALID,0,VALID,88.5265,VALID,0,VALID,24.1482,VALID,94,VALID,1.77227,
2010-09-05, 02:35:04,VALID,999.683,VALID,0,VALID,88.412,VALID,0,VALID,24.1482,VALID,104,VALID,2.29258,
2010-09-05, 02:36:04,VALID,999.663,VALID,0,VALID,88.351,VALID,0,VALID,24.1287,VALID,100,VALID,1.87461,
2010-09-05, 02:37:04,VALID,999.696,VALID,0,VALID,88.3205,VALID,0.112286,VALID,24.1092,VALID,98,VALID,2.02539,
2010-09-05, 02:38:04,VALID,999.727,VALID,0,VALID,88.5112,VALID,0,VALID,24.1092,VALID,110,VALID,1.81367,
2010-09-05, 02:39:04,VALID,999.726,VALID,0,VALID,88.763,VALID,0,VALID,24.1092,VALID,101,VALID,1.3625,
2010-09-05, 02:40:04,VALID,999.744,VALID,0,VALID,88.5646,VALID,0,VALID,24.0701,VALID,97,VALID,1.65781,
2010-09-05, 02:41:04,VALID,999.746,VALID,0,VALID,88.3205,VALID,0,VALID,24.0897,VALID,95,VALID,1.6293,
2010-09-05, 02:42:04,VALID,999.746,VALID,0,VALID,88.7325,VALID,0,VALID,24.0897,VALID,112,VALID,1.15469,
2010-09-05, 02:43:04,VALID,999.757,VALID,0,VALID,88.8317,VALID,0.112286,VALID,24.0506,VALID,97,VALID,0.928906,
2010-09-05, 02:44:04,VALID,999.787,VALID,0,VALID,88.6562,VALID,0,VALID,24.0506,VALID,107,VALID,1.28477,
2010-09-05, 02:45:04,VALID,999.779,VALID,0,VALID,88.6104,VALID,0,VALID,24.0506,VALID,92,VALID,1.48047,
2010-09-05, 02:46:04,VALID,999.737,VALID,0,VALID,88.8774,VALID,0.112286,VALID,24.0311,VALID,78,VALID,1.40313,
2010-09-05, 02:47:04,VALID,999.745,VALID,0,VALID,88.5189,VALID,0.112286,VALID,24.0116,VALID,74,VALID,1.75781,
2010-09-05, 02:48:04,VALID,999.719,VALID,0,VALID,88.2671,VALID,0,VALID,24.0116,VALID,68,VALID,1.67969,
2010-09-05, 02:49:04,VALID,999.745,VALID,0,VALID,88.4807,VALID,0,VALID,24.0116,VALID,79,VALID,1.31172,
2010-09-05, 02:50:04,VALID,999.757,VALID,0,VALID,88.3586,VALID,0,VALID,24.0116,VALID,78,VALID,1.51367,
2010-09-05, 02:51:04,VALID,999.71,VALID,0,VALID,88.702,VALID,0,VALID,24.0116,VALID,77,VALID,1.16484,
2010-09-05, 02:52:04,VALID,999.699,VALID,0,VALID,88.5189,VALID,0,VALID,23.9939,VALID,82,VALID,1.22578,
2010-09-05, 02:53:04,VALID,999.695,VALID,0,VALID,88.1603,VALID,0,VALID,23.9939,VALID,82,VALID,1.60664,
2010-09-05, 02:54:04,VALID,999.697,VALID,0,VALID,88.0229,VALID,0,VALID,24.0329,VALID,91,VALID,0.913281,
2010-09-05, 02:55:04,VALID,999.703,VALID,0,VALID,87.794,VALID,0,VALID,24.0329,VALID,113,VALID,0.757422,
2010-09-05, 02:56:04,VALID,999.703,VALID,0,VALID,88.0763,VALID,0,VALID,24.0525,VALID,118,VALID,1.02422,
2010-09-05, 02:57:04,VALID,999.692,VALID,0,VALID,88.1526,VALID,0,VALID,24.0525,VALID,115,VALID,0.961719,
2010-09-05, 02:58:04,VALID,999.691,VALID,0,VALID,88.1755,VALID,0,VALID,24.0329,VALID,118,VALID,0.880469,
2010-09-05, 02:59:04,VALID,999.719,VALID,0,VALID,88.1526,VALID,0,VALID,24.0134,VALID,124,VALID,1.11641,
2010-09-05, 03:00:04,VALID,999.725,VALID,0,VALID,88.0992,VALID,0,VALID,24.0329,VALID,108,VALID,0.982422,
2010-09-05, 03:01:04,VALID,999.694,VALID,0,VALID,88.2442,VALID,0,VALID,24.0329,VALID,81,VALID,0.923047,
2010-09-05, 03:02:04,VALID,999.76,VALID,0,VALID,88.351,VALID,0,VALID,24.0134,VALID,71,VALID,0.922656,
2010-09-05, 03:03:04,VALID,999.746,VALID,0,VALID,88.29,VALID,0,VALID,24.0153,VALID,70,VALID,0.991797,
2010-09-05, 03:04:04,VALID,999.802,VALID,0,VALID,88.3663,VALID,0,VALID,23.9744,VALID,100,VALID,0.873047,
2010-09-05, 03:05:04,VALID,999.802,VALID,0,VALID,88.3815,VALID,0,VALID,23.9744,VALID,120,VALID,0.517969,
2010-09-05, 03:06:04,VALID,999.793,VALID,0,VALID,88.496,VALID,0,VALID,23.9744,VALID,120,VALID,0.521875,
2010-09-05, 03:07:04,VALID,999.788,VALID,0,VALID,88.557,VALID,0,VALID,23.9549,VALID,120,VALID,0.588672,
2010-09-05, 03:08:04,VALID,999.783,VALID,0,VALID,88.7325,VALID,0,VALID,23.9744,VALID,137,VALID,0.705469,
2010-09-05, 03:09:04,VALID,999.76,VALID,0,VALID,88.8317,VALID,0,VALID,23.9939,VALID,144,VALID,0.726953,
2010-09-05, 03:10:04,VALID,999.775,VALID,0,VALID,88.908,VALID,0,VALID,24.0134,VALID,169,VALID,0.889063,
2010-09-05, 03:11:04,VALID,999.74,VALID,0,VALID,89.0987,VALID,0,VALID,24.072,VALID,188,VALID,1.19453,
2010-09-05, 03:12:04,VALID,999.777,VALID,0,VALID,88.4807,VALID,0,VALID,24.1482,VALID,188,VALID,1.51914,
2010-09-05, 03:13:04,VALID,999.801,VALID,0,VALID,87.5499,VALID,0,VALID,24.2671,VALID,177,VALID,1.45508,
2010-09-05, 03:14:04,VALID,999.813,VALID,0,VALID,87.4278,VALID,0,VALID,24.3647,VALID,174,VALID,1.76641,
2010-09-05, 03:15:04,VALID,999.836,VALID,0,VALID,88.0153,VALID,0,VALID,24.4037,VALID,183,VALID,1.07383,
2010-09-05, 03:16:04,VALID,999.818,VALID,0,VALID,87.9695,VALID,0,VALID,24.4233,VALID,187,VALID,0.723437,
2010-09-05, 03:17:04,VALID,999.815,VALID,0,VALID,87.7483,VALID,0,VALID,24.4019,VALID,193,VALID,0.790234,
2010-09-05, 03:18:05,VALID,999.828,VALID,0,VALID,87.3744,VALID,0,VALID,24.4019,VALID,189,VALID,0.698047,
2010-09-05, 03:19:05,VALID,999.789,VALID,0,VALID,86.2223,VALID,0,VALID,24.4428,VALID,189,VALID,0.353125,
2010-09-05, 03:20:05,VALID,999.791,VALID,0,VALID,87.5346,VALID,0,VALID,24.4604,VALID,189,VALID,0.0660156,
2010-09-05, 03:21:05,VALID,999.798,VALID,0,VALID,88.0534,VALID,0,VALID,24.4233,VALID,189,VALID,0.121875,
2010-09-05, 03:22:05,VALID,999.792,VALID,0,VALID,87.8932,VALID,0,VALID,24.3647,VALID,185,VALID,0.669531,
2010-09-05, 03:23:05,VALID,999.771,VALID,0,VALID,87.3515,VALID,0,VALID,24.3452,VALID,167,VALID,0.723047,
2010-09-05, 03:24:05,VALID,999.728,VALID,0,VALID,87.8703,VALID,0,VALID,24.3647,VALID,167,VALID,0.479297,
2010-09-05, 03:25:05,VALID,999.747,VALID,0,VALID,87.9848,VALID,0,VALID,24.3452,VALID,167,VALID,0.532031,
2010-09-05, 03:26:05,VALID,999.719,VALID,0,VALID,88.29,VALID,0,VALID,24.3257,VALID,167,VALID,0.584766,
2010-09-05, 03:27:05,VALID,999.751,VALID,0,VALID,88.8164,VALID,0,VALID,24.2263,VALID,167,VALID,0.428906,
2010-09-05, 03:28:05,VALID,999.79,VALID,0,VALID,89.236,VALID,0,VALID,24.1696,VALID,167,VALID,0.566797,
2010-09-05, 03:29:05,VALID,999.838,VALID,0,VALID,89.5794,VALID,0,VALID,24.111,VALID,167,VALID,0.508984,
2010-09-05, 03:30:05,VALID,999.84,VALID,0,VALID,89.6023,VALID,0,VALID,24.072,VALID,167,VALID,0.138281,
2010-09-05, 03:31:05,VALID,999.848,VALID,0,VALID,89.732,VALID,0,VALID,24.0329,VALID,167,VALID,0,
2010-09-05, 03:32:05,VALID,999.851,VALID,0,VALID,89.7091,VALID,0,VALID,24.0329,VALID,167,VALID,0,
2010-09-05, 03:33:05,VALID,999.863,VALID,0,VALID,89.5565,VALID,0,VALID,24.0329,VALID,167,VALID,0,
2010-09-05, 03:34:05,VALID,999.853,VALID,0,VALID,89.3963,VALID,0,VALID,23.9921,VALID,167,VALID,0,
2010-09-05, 03:35:05,VALID,999.898,VALID,0,VALID,88.9843,VALID,0,VALID,24.0134,VALID,167,VALID,0,
2010-09-05, 03:36:05,VALID,999.913,VALID,0,VALID,89.3505,VALID,0,VALID,24.0525,VALID,167,VALID,0,
2010-09-05, 03:37:05,VALID,999.964,VALID,0,VALID,89.1368,VALID,0,VALID,24.0525,VALID,167,VALID,0,
2010-09-05, 03:38:05,VALID,1000.04,VALID,0,VALID,88.9537,VALID,0,VALID,24.072,VALID,173,VALID,0.853906,
2010-09-05, 03:39:05,VALID,1000.14,VALID,0,VALID,89.442,VALID,0,VALID,24.1696,VALID,174,VALID,2.28047,
2010-09-05, 03:40:05,VALID,1000.26,VALID,0,VALID,89.4268,VALID,0,VALID,24.2086,VALID,177,VALID,3.22813,
2010-09-05, 03:41:05,VALID,1000.33,VALID,0,VALID,89.9303,VALID,0,VALID,24.1891,VALID,170,VALID,2.94727,
2010-09-05, 03:42:05,VALID,1000.41,VALID,0,VALID,90.0982,VALID,0,VALID,24.1482,VALID,165,VALID,2.5418,
2010-09-05, 03:43:05,VALID,1000.47,VALID,0,VALID,90.3118,VALID,0,VALID,24.15,VALID,162,VALID,2.98867,
2010-09-05, 03:44:05,VALID,1000.54,VALID,0,VALID,90.0448,VALID,0,VALID,24.15,VALID,151,VALID,3.47305,
2010-09-05, 03:45:05,VALID,1000.57,VALID,0,VALID,89.5717,VALID,0,VALID,24.1891,VALID,139,VALID,2.56758,